Location: ????????
(60.4333°N, 46.4710°E)
Time: 18:53:06
(UTC+00:00)

Meteor 1-25 Rocket - Pass Details

Date: 25 November 2020
Orbit: 838 x 890 km, 81.2° (Epoch: 17 January)

Event Time Altitude Azimuth Distance (km) Brightness Sun altitude
Rises 13:49:41 0° 342° (NNW) 3,410 7.3 -12.0°
Reaches altitude 10° 13:52:11 10° 347° (NNW) 2,475 6.6 -12.3°
Maximum altitude 13:57:39 51° 63° (ENE) 1,067 4.3 -12.9°
Drops below altitude 10° 14:03:08 10° 140° (SE) 2,487 6.4 -13.5°
Sets 14:05:38 0° 145° (SE) 3,428 7.2 -13.8°
